Weather in Maragheh

Iran     37°23′22″N   46°14′20″E
В апреле 2022 года жителям России запретили посещать сайт meteo.paraplan.net по решению Генеральной прокуратуры. Аудитория сайта уменьшилась в 10 раз. Владельцы сайта не видят смысла в поддержке погодного сервера в таких условиях. Сайт будет закрыт в октябре.
temp.,
°C
wind,
m/s
gust,
m/s
humid.,
%
clouds,
%
prec.,
mm/h
press.,
hPa
HPBL,
m
4 october, tue
tue400:30+15ese24263 0.0 1015287
03:30+14e23282 0.0 101685
06:30+14ene22290 0.0 101732
09:30+19s45220 0.0 10181322
12:30+21ssw45170 0.0 10181759
15:30+22wsw34140 0.0 10171875
18:30+19sse12170 0.0 1018465
21:30+17se22200 0.0 1020150
5 october, wed
wed500:30+16ne11250 0.0 102116
03:30+15ne22250 0.0 102114
06:30+13ene11270 0.0 102211
09:30+19s11190 0.0 1022502
12:30+22sw33150 0.0 10201507
15:30+23wsw34130 0.0 10191921
18:30+20nne11180 0.0 1019196
21:30+19ne22180 0.0 102029
6 october, thu
thu600:30+17nne22200 0.0 102020
03:30+16ne33210 0.0 102023
06:30+16ne33220 0.0 102028
09:30+20sse23160 0.0 1019795
12:30+23sse34120 0.0 10172555
15:30+24sw23110 0.0 10152510
18:30+20nnw12160 0.0 1015101
21:30+19ene46200 0.0 1017230
7 october, fri
fri700:30+17ene47270 0.0 1017232
03:30+16ene46340 0.0 1018211
06:30+15ene45380 0.0 1018115
09:30+19se23300 0.0 1018657
12:30+22se33240 0.0 10171272
15:30+23se44220 0.0 10151697
18:30+19e46312 0.0 1016296
21:30+17ene56380 0.0 1018210
8 october, sat
sat800:30+15ene45454 0.0 1018163
03:30+14e34473 0.0 1018110
06:30+13e22550 0.0 101989
09:30+17sse22380 0.0 1019511
12:30+20s32270 0.0 1017993
15:30+22s24190 0.0 10151917
18:30+20ese12224 0.0 1015323
21:30+18sse22281 0.0 101776